This is the latest recevied weather packets stored in our database for station/object KM8V-8. If no packets are shown the sender has not sent any weather packets the latest 10 day(s).
| Time | Temp. | Humidity | Pressure | Rain* | Wind** | Luminosity | Snow |
|---|---|---|---|---|---|---|---|
| 1778099728 | 10° C | 67% | 1011.8 hPa | 0 mm | - | 236 W/m² | - |
| 1778099429 | 10° C | 68% | 1011.8 hPa | 0 mm | - | 199 W/m² | - |
| 1778099117 | 10° C | 68% | 1011.8 hPa | 0 mm | - | 218 W/m² | - |
| 1778098828 | 10° C | 68% | 1011.8 hPa | 0 mm | - | 228 W/m² | - |
| 1778098531 | 10° C | 68% | 1011.9 hPa | 0 mm | - | 202 W/m² | - |
| 1778098228 | 10.56° C | 68% | 1011.9 hPa | 0 mm | - | 205 W/m² | - |
| 1778097929 | 10.56° C | 68% | 1011.9 hPa | 0 mm | - | 201 W/m² | - |
| 1778097629 | 10.56° C | 67% | 1011.8 hPa | 0 mm | - | 213 W/m² | - |
| 1778097330 | 11.11° C | 67% | 1011.8 hPa | 0 mm | - | 258 W/m² | - |
| 1778097029 | 11.11° C | 66% | 1011.8 hPa | 0 mm | - | 258 W/m² | - |
| 1778096720 | 11.67° C | 66% | 1011.9 hPa | 0 mm | - | 300 W/m² | - |
| 1778096420 | 11.67° C | 65% | 1011.8 hPa | 0 mm | - | 338 W/m² | - |
| 1778096120 | 11.67° C | 67% | 1011.7 hPa | 0 mm | - | 458 W/m² | - |
| 1778095821 | 11.67° C | 66% | 1011.6 hPa | 0 mm | - | 419 W/m² | - |
| 1778095530 | 11.67° C | 65% | 1011.7 hPa | 0 mm | - | 548 W/m² | - |
| 1778095230 | 11.67° C | 66% | 1011.7 hPa | 0 mm | - | 548 W/m² | - |
| 1778094922 | 11.67° C | 66% | 1011.7 hPa | 0 mm | - | 433 W/m² | - |
| 1778094621 | 12.22° C | 66% | 1011.7 hPa | 0 mm | - | 469 W/m² | - |
| 1778094330 | 11.67° C | 66% | 1011.7 hPa | 0 mm | - | 635 W/m² | - |
| 1778094029 | 11.67° C | 64% | 1011.8 hPa | 0 mm | - | 625 W/m² | - |
| 1778093721 | 11.67° C | 67% | 1011.9 hPa | 0 mm | - | 679 W/m² | - |
| 1778093421 | 11.11° C | 65% | 1012 hPa | 0 mm | - | 731 W/m² | - |
| 1778093121 | 11.11° C | 68% | 1011.9 hPa | 0 mm | - | 743 W/m² | - |
| 1778092821 | 11.11° C | 69% | 1012.1 hPa | 0 mm | - | 628 W/m² | - |
| 1778092521 | 11.11° C | 68% | 1011.9 hPa | 0 mm | - | 648 W/m² | - |
* Rain latest hour (hover to see other rain measurements)
** Current wind speed in m/s (hover to see current wind gust speed)